TimeCST,TemperatureF,Dew PointF,Humidity,Sea Level PressureIn,VisibilityMPH,Wind Direction,Wind SpeedMPH,Gust SpeedMPH,PrecipitationIn,Events,Conditions,WindDirDegrees,DateUTC
12:15 AM,30.7,28.4,91,29.61,7.0,NNE,16.1,-,N/A,,Overcast,20,2013-02-27 06:15:00
12:35 AM,30.9,28.4,90,29.61,10.0,NNE,12.7,16.1,N/A,,Overcast,20,2013-02-27 06:35:00
12:55 AM,30.7,28.8,92,29.61,2.5,North,9.2,19.6,N/A,Snow,Light Snow,10,2013-02-27 06:55:00
1:15 AM,30.2,28.8,94,29.61,4.0,North,12.7,16.1,N/A,Snow,Light Snow,10,2013-02-27 07:15:00
1:35 AM,30.2,28.8,94,29.61,2.5,North,11.5,-,N/A,,Overcast,360,2013-02-27 07:35:00
1:55 AM,29.3,28.2,96,29.60,2.5,North,12.7,18.4,0.01,,Overcast,360,2013-02-27 07:55:00
2:15 AM,29.1,27.9,95,29.60,2.5,North,13.8,19.6,N/A,Snow,Light Snow,360,2013-02-27 08:15:00
2:35 AM,28.8,27.3,94,29.59,3.0,North,11.5,18.4,N/A,Snow,Light Snow,360,2013-02-27 08:35:00
2:55 AM,28.4,26.6,93,29.59,3.0,North,13.8,23.0,N/A,Snow,Light Snow,360,2013-02-27 08:55:00
3:15 AM,28.4,26.6,93,29.59,3.0,North,17.3,21.9,N/A,Snow,Light Snow,360,2013-02-27 09:15:00
3:35 AM,28.0,26.2,93,29.59,3.0,North,13.8,19.6,N/A,Snow,Light Snow,360,2013-02-27 09:35:00
3:55 AM,28.0,26.1,92,29.58,3.0,North,16.1,23.0,N/A,Snow,Light Snow,360,2013-02-27 09:55:00
4:15 AM,28.0,26.1,92,29.59,3.0,North,17.3,20.7,N/A,Snow,Light Snow,360,2013-02-27 10:15:00
4:35 AM,28.0,26.2,93,29.59,2.5,North,16.1,24.2,N/A,Snow,Light Snow,10,2013-02-27 10:35:00
5:35 AM,28.0,26.1,92,29.59,2.5,North,13.8,24.2,N/A,Snow,Light Snow,360,2013-02-27 11:35:00
5:55 AM,28.0,25.7,91,29.59,3.0,North,17.3,24.2,N/A,Snow,Light Snow,360,2013-02-27 11:55:00
6:15 AM,28.2,26.1,92,29.59,2.5,North,16.1,25.3,N/A,Snow,Light Snow,10,2013-02-27 12:15:00
6:35 AM,28.0,26.1,92,29.59,2.5,North,12.7,18.4,N/A,Snow,Light Snow,10,2013-02-27 12:35:00
7:15 AM,28.4,26.1,91,29.61,3.0,North,10.4,20.7,N/A,Snow,Light Snow,360,2013-02-27 13:15:00
7:35 AM,28.4,26.1,91,29.61,5.0,North,12.7,17.3,N/A,Snow,Light Snow,10,2013-02-27 13:35:00
7:55 AM,28.4,25.7,90,29.61,7.0,North,11.5,19.6,N/A,,Overcast,360,2013-02-27 13:55:00
8:15 AM,28.9,26.4,90,29.61,4.0,North,12.7,18.4,N/A,,Overcast,10,2013-02-27 14:15:00
8:35 AM,28.9,27.0,92,29.61,3.0,North,12.7,18.4,N/A,,Overcast,360,2013-02-27 14:35:00
8:55 AM,29.1,27.1,92,29.61,2.5,North,13.8,18.4,N/A,,Overcast,360,2013-02-27 14:55:00
9:15 AM,29.1,27.1,92,29.61,2.5,North,13.8,19.6,N/A,,Overcast,360,2013-02-27 15:15:00
9:35 AM,29.1,27.1,92,29.61,4.0,North,11.5,20.7,N/A,,Overcast,10,2013-02-27 15:35:00
9:55 AM,29.5,27.3,92,29.61,4.0,North,13.8,17.3,N/A,Snow,Light Snow,10,2013-02-27 15:55:00
10:15 AM,29.7,27.3,91,29.61,3.0,North,15.0,20.7,N/A,Snow,Light Snow,360,2013-02-27 16:15:00
10:35 AM,30.0,27.5,90,29.61,5.0,North,15.0,20.7,N/A,,Overcast,360,2013-02-27 16:35:00
10:55 AM,30.2,27.9,91,29.61,5.0,North,12.7,18.4,N/A,,Overcast,360,2013-02-27 16:55:00
11:15 AM,30.9,28.2,90,29.61,4.0,North,12.7,24.2,N/A,Snow,Light Snow,360,2013-02-27 17:15:00
11:35 AM,31.1,28.2,89,29.62,2.0,North,12.7,21.9,N/A,Snow,Light Snow,360,2013-02-27 17:35:00
11:55 AM,32.0,28.4,87,29.61,2.5,North,16.1,24.2,N/A,Snow,Light Snow,360,2013-02-27 17:55:00
12:15 PM,31.8,28.4,87,29.61,3.0,North,15.0,20.7,N/A,Snow,Light Snow,360,2013-02-27 18:15:00
12:35 PM,32.0,28.4,87,29.61,4.0,North,17.3,21.9,N/A,Snow,Light Snow,360,2013-02-27 18:35:00
12:55 PM,31.6,28.4,88,29.61,4.0,North,17.3,21.9,N/A,Snow,Light Snow,360,2013-02-27 18:55:00
1:35 PM,31.8,28.6,88,29.62,1.5,North,15.0,18.4,0.01,Snow,Light Snow,360,2013-02-27 19:35:00
1:55 PM,32.0,29.3,90,29.62,1.2,North,12.7,20.7,0.01,Snow,Light Snow,350,2013-02-27 19:55:00
2:35 PM,31.5,29.3,92,29.63,2.0,North,12.7,-,N/A,Snow,Light Snow,360,2013-02-27 20:35:00
2:55 PM,31.6,29.3,91,29.64,1.5,North,15.0,18.4,N/A,Snow,Light Snow,350,2013-02-27 20:55:00
3:15 PM,31.5,29.5,92,29.64,1.0,North,12.7,17.3,N/A,Snow,Light Snow,360,2013-02-27 21:15:00
3:35 PM,31.3,29.5,93,29.65,1.2,North,12.7,17.3,0.01,,Overcast,350,2013-02-27 21:35:00
3:55 PM,31.8,28.4,87,29.65,4.0,North,17.3,24.2,0.01,,Overcast,360,2013-02-27 21:55:00
4:15 PM,31.5,28.8,90,29.66,4.0,North,13.8,-,N/A,,Overcast,360,2013-02-27 22:15:00
4:35 PM,31.1,28.8,91,29.66,4.0,North,15.0,23.0,N/A,Snow,Light Snow,360,2013-02-27 22:35:00
4:55 PM,31.1,28.8,91,29.67,4.0,North,11.5,20.7,N/A,,Overcast,350,2013-02-27 22:55:00
5:15 PM,31.1,28.8,91,29.68,5.0,North,11.5,19.6,N/A,Snow,Light Snow,350,2013-02-27 23:15:00
5:35 PM,31.1,28.6,90,29.69,5.0,North,13.8,18.4,N/A,Snow,Light Snow,350,2013-02-27 23:35:00
5:55 PM,31.1,28.4,90,29.69,7.0,North,12.7,17.3,N/A,,Overcast,350,2013-02-27 23:55:00
6:15 PM,31.6,28.2,87,29.70,10.0,North,15.0,19.6,N/A,,Overcast,360,2013-02-28 00:15:00
6:35 PM,31.6,28.8,89,29.71,7.0,NNW,10.4,17.3,N/A,,Overcast,340,2013-02-28 00:35:00
6:55 PM,31.1,29.3,93,29.71,2.5,NNW,9.2,-,N/A,,Overcast,330,2013-02-28 00:55:00
7:15 PM,31.1,29.8,95,29.71,2.5,NNW,11.5,-,N/A,Snow,Light Snow,340,2013-02-28 01:15:00
7:35 PM,31.1,29.8,95,29.71,7.0,NNW,10.4,-,N/A,Snow,Light Snow,340,2013-02-28 01:35:00
8:15 PM,31.5,29.3,92,29.73,10.0,North,10.4,16.1,N/A,,Overcast,350,2013-02-28 02:15:00
8:35 PM,31.5,29.7,93,29.73,10.0,NNW,10.4,-,N/A,,Overcast,340,2013-02-28 02:35:00
8:55 PM,31.6,29.3,91,29.73,10.0,NNW,13.8,-,N/A,,Overcast,340,2013-02-28 02:55:00
9:15 PM,31.8,29.3,90,29.73,10.0,North,13.8,18.4,N/A,,Overcast,360,2013-02-28 03:15:00
9:35 PM,31.8,29.3,90,29.74,10.0,North,11.5,16.1,N/A,,Overcast,350,2013-02-28 03:35:00
10:15 PM,31.8,29.1,90,29.74,10.0,North,11.5,-,N/A,,Overcast,350,2013-02-28 04:15:00
10:35 PM,31.8,29.1,90,29.74,10.0,North,10.4,17.3,N/A,,Overcast,350,2013-02-28 04:35:00
11:15 PM,31.8,29.1,90,29.75,10.0,NNW,11.5,17.3,N/A,,Overcast,340,2013-02-28 05:15:00